sat.trackr.live / text

‹ back to catalog

STARLINK-11527 [DTC]

NORAD 62523 · 2025-004N

PAYLOAD ACTIVE UNKNOWN

§ Identity

Operator
Country
US
Launch date
2025-01-08
Launch site
AFETR
Launch vehicle
Mass (kg)
RCS (m²)

Purposes: comms

External: N2YO · Heavens-Above · Gunter

§ Orbital elements

Epoch: 2026-05-24T21:02:52.643616Z

Period
91.66 min
Inclination
43.0006°
Eccentricity
0.0003497
Mean motion
15.71080516 rev/d
Perigee alt
353.5 km
Apogee alt
358.2 km
Semi-major
6,733.9 km
B*
2.3022e-3
RAAN
331.2411°
Arg perigee
282.7994°
Mean anomaly
77.2483°
Rev number
7,919

§ Raw data

STARLINK-11527 [DTC]1 62523U 25004N   26144.87699819  .00309347  00000+0  23022-2 0  99992 62523  43.0006 331.2411 0003497 282.7994  77.2483 15.71080516 79193

JSON: /api/v1/satellites/62523 · /tle

For live sub-satellite position, see the globe view (requires WebGL).

§ Visibility from observer

Set your observer location to see the next 7 days of passes ≥ 10°. The values pass through the URL so the page stays shareable.

No JS? Fill the form by hand. The geolocation button needs JavaScript.